W5URF-13 Weather Reports


Display with metric or nautical units.
time (UTC)temp
F
wind
direction
speed
MPH
gust
MPH
rain 1hr
in
rain 24hr
in
rain mn
in
humidity
%
barometer
mb
20260510120016 63 44 0.0 0.0 0.00 0.00 0.00 82 1015.9
20260510114519 63 129 0.0 0.0 0.00 0.00 0.00 81 1015.4
20260510113012 63 129 0.0 0.0 0.00 0.00 0.00 80 1015.0
20260510111515 64 129 0.0 0.0 0.00 0.00 0.00 79 1015.0
20260510110012 64 129 0.0 0.0 0.00 0.00 0.00 77 1014.7
20260510104508 64 129 0.0 0.0 0.00 0.00 0.00 76 1014.5
20260510103006 65 129 0.0 0.0 0.00 0.00 0.00 75 1014.3
20260510101505 65 129 0.0 0.0 0.00 0.00 0.00 73 1014.2
20260510100006 66 41 0.0 0.0 0.00 0.00 0.00 71 1014.2
20260510094505 65 32 0.0 1.0 0.00 0.00 0.00 71 1014.0
20260510093003 65 11 0.0 0.0 0.00 0.00 0.00 73 1013.9
20260510091600 65 11 0.0 0.0 0.00 0.00 0.00 71 1013.7
20260510090058 66 11 0.0 1.0 0.00 0.00 0.00 69 1013.7
20260510084557 66 21 1.0 4.0 0.00 0.00 0.00 69 1013.1
20260510083102 66 32 0.0 3.0 0.00 0.00 0.00 70 1012.6
20260510081555 67 40 0.0 1.0 0.00 0.00 0.00 70 1012.0
20260510080055 67 24 0.0 0.0 0.00 0.00 0.00 69 1012.0
20260510074552 67 22 0.0 4.0 0.00 0.00 0.00 67 1011.0
20260510073050 68 148 4.0 10.0 0.00 0.00 0.00 66 1009.7
20260510071554 67 181 1.0 5.0 0.00 0.00 0.00 68 1013.0
20260510070044 68 176 0.0 7.0 0.00 0.00 0.00 63 1012.7
20260510064541 68 150 2.0 6.0 0.00 0.00 0.00 61 1012.2
20260510063042 69 132 0.0 1.0 0.00 0.00 0.00 64 1015.5
20260510061545 70 32 0.0 0.0 0.00 0.00 0.00 61 1014.4
20260510060032 70 32 0.0 1.0 0.00 0.00 0.00 60 1014.6
20260510054529 70 33 0.0 0.0 0.00 0.00 0.00 59 1014.9
20260510053026 71 34 0.0 3.0 0.00 0.00 0.00 58 1015.0
20260510051524 72 49 0.0 5.0 0.00 0.00 0.00 56 1015.2
20260510050026 72 31 2.0 5.0 0.00 0.00 0.00 55 1014.9
20260510044516 72 160 0.0 0.0 0.00 0.00 0.00 53 1014.1
20260510043020 71 160 0.0 0.0 0.00 0.00 0.00 54 1013.6
20260510041515 71 160 0.0 0.0 0.00 0.00 0.00 54 1013.3
20260510040013 71 160 0.0 0.0 0.00 0.00 0.00 54 1013.2
20260510034512 72 160 0.0 0.0 0.00 0.00 0.00 54 1013.0
20260510033012 72 160 0.0 0.0 0.00 0.00 0.00 51 1012.9
20260510031529 72 160 0.0 0.0 0.00 0.00 0.00 50 1013.1
20260510030016 72 160 0.0 0.0 0.00 0.00 0.00 50 1013.1
20260510024512 72 160 0.0 0.0 0.00 0.00 0.00 51 1012.8
20260510023010 72 160 0.0 0.0 0.00 0.00 0.00 53 1012.2
20260510021510 73 160 0.0 0.0 0.00 0.00 0.00 53 1011.4
20260510020009 73 160 0.0 0.0 0.00 0.00 0.00 52 1011.1
20260510014508 74 169 0.0 0.0 0.00 0.00 0.00 49 1010.8
20260510013008 75 169 0.0 0.0 0.00 0.00 0.00 47 1010.7
20260510011508 76 164 0.0 0.0 0.00 0.00 0.00 46 1010.5
20260510010007 77 212 0.0 0.0 0.00 0.00 0.00 44 1010.3
20260510004506 78 210 0.0 1.0 0.00 0.00 0.00 42 1010.3
20260510003018 78 131 0.0 2.0 0.00 0.00 0.00 40 1010.1
20260510001505 79 150 1.0 3.0 0.00 0.00 0.00 40 1010.1
20260510000005 79 155 3.0 6.0 0.00 0.00 0.00 39 1010.2
20260509234508 79 127 0.0 5.0 0.00 0.00 0.00 37 1010.2
20260509233001 79 172 1.0 8.0 0.00 0.00 0.00 33 1010.4
20260509231601 80 139 2.0 8.0 0.00 0.00 0.00 31 1010.3
20260509230108 80 126 2.0 8.0 0.00 0.00 0.00 35 1010.4
20260509224556 80 129 0.0 4.0 0.00 0.00 0.00 36 1010.6
20260509223056 80 145 2.0 5.0 0.00 0.00 0.00 36 1010.4
20260509221554 80 148 0.0 6.0 0.00 0.00 0.00 38 1010.5
20260509220052 80 168 1.0 5.0 0.00 0.00 0.00 38 1010.7
20260509214553 81 167 1.0 4.0 0.00 0.00 0.00 34 1010.7
20260509213052 81 115 1.0 8.0 0.00 0.00 0.00 29 1010.9
20260509211545 82 128 2.0 5.0 0.00 0.00 0.00 33 1011.0
20260509210048 82 232 1.0 4.0 0.00 0.00 0.00 32 1011.3
20260509204542 82 230 1.0 6.0 0.00 0.00 0.00 32 1011.5
20260509203039 83 152 2.0 6.0 0.00 0.00 0.00 33 1011.5
20260509201539 83 129 0.0 4.0 0.00 0.00 0.00 35 1011.6
20260509200034 83 238 3.0 13.0 0.00 0.00 0.00 35 1011.7
20260509194536 83 143 0.0 5.0 0.00 0.00 0.00 36 1011.9
20260509193032 83 94 0.0 3.0 0.00 0.00 0.00 34 1012.1
20260509191531 84 157 0.0 1.0 0.00 0.00 0.00 38 1012.1
20260509190029 83 166 0.0 0.0 0.00 0.00 0.00 35 1012.1
20260509184527 82 125 0.0 3.0 0.00 0.00 0.00 34 1012.1
20260509183027 82 252 0.0 3.0 0.00 0.00 0.00 39 1012.3
20260509181537 82 217 0.0 2.0 0.00 0.00 0.00 50 1012.5
20260509180019 81 5 0.0 1.0 0.00 0.00 0.00 56 1012.8
20260509174517 80 251 0.0 0.0 0.00 0.00 0.00 57 1012.9
20260509173022 79 115 0.0 2.0 0.00 0.00 0.00 58 1013.2
20260509171511 78 131 0.0 1.0 0.00 0.00 0.00 61 1013.2
20260509170007 77 240 0.0 4.0 0.00 0.00 0.00 67 1013.3
20260509164502 75 116 0.0 1.0 0.00 0.00 0.00 71 1013.4
20260509163102 74 130 0.0 1.0 0.00 0.00 0.00 78 1013.5
20260509161555 72 183 0.0 3.0 0.00 0.00 0.00 77 1013.4
20260509160057 71 269 0.0 1.0 0.00 0.00 0.00 83 1013.3
20260509154553 68 179 0.0 0.0 0.00 0.00 0.00 84 1013.1
20260509153044 67 169 0.0 0.0 0.00 0.00 0.00 88 1013.0
20260509151543 65 157 0.0 0.0 0.00 0.00 0.00 91 1013.3
20260509150036 64 163 0.0 0.0 0.00 0.00 0.00 93 1013.3
20260509144538 63 179 0.0 0.0 0.00 0.00 0.00 93 1013.3
20260509143033 62 179 0.0 0.0 0.00 0.00 0.00 94 1013.3
20260509141529 62 165 0.0 0.0 0.00 0.00 0.00 94 1013.2
20260509140026 61 226 0.0 0.0 0.00 0.00 0.00 94 1013.2
20260509134523 60 227 0.0 0.0 0.00 0.00 0.00 94 1013.1
20260509133022 60 229 0.0 0.0 0.00 0.00 0.00 94 1012.8
20260509131519 59 228 0.0 0.0 0.00 0.00 0.00 94 1012.5
20260509130018 59 221 0.0 0.0 0.00 0.00 0.00 94 1012.5
20260509124516 58 221 0.0 0.0 0.00 0.00 0.00 94 1012.4
20260509123017 57 221 0.0 0.0 0.00 0.00 0.00 94 1012.3
20260509121523 56 221 0.0 0.0 0.00 0.00 0.00 94 1012.1